"Pseudo-MPEC" for P10HlHB

Created 2018 Apr 20 13:18:07 UT using Find_Orb

Click here for an explanation of pseudo-MPECs

 
 Astrometry: 
     P10HlHB  C2018 04 139gAstrometryr=1#pyrs]nO`+XUMCR!hlLnWN/hD[+U_!%^NyBBNF51
     P10HlHB  C2018 04 13\'`7w34*hvop-CM1qwp\L+A^=vfy#MjU:$_][5RQBuX^a)51cL]IF51
     P10HlHB  C2018 04 13G]-dYt=7!-F;e_xFt*RdTAnCRWo6MhZ-bwxc^DXJ)1p#;sug'[$IF51
     P10HlHB KC2018 04 14lt_Mj2;KsWHqta;R1x=[U38N.%/%:4N,b33,yNWM_ZDYA:f,l)AH291
     P10HlHB KC2018 04 14Yv%^`*RN29jyLvxUTredacted;K:hJtc`o0CjX`J/?bI#;w5Tg4Z291
     P10HlHB KC2018 04 16=f5K8P9J40KDSpWmt@f\iiQf$_-8@$%UPq+ig/F!sKy'uVtov;,?291
     P10HlHB KC2018 04 16*]_cwlU=q4L!+2DLAj';p'Bk7p;heG-p^m3[9hRd#%ebk0ifTp'$291
     P10HlHB KC2018 04 19w#p5N1Wm2d=p1PRK?*ivcU^T?MAsxxuZHdb3AUE`s;q#GvB,frou291
     P10HlHB KC2018 04 191$:8yg6U?25APQTLaSf4I77p44T,LO=PseeCVOdl**XtKc%Z5f3U291
     P10HlHB KC2018 04 196l8-Zc425=P?:`n%RS/e'4N,n=M\r'rd?YEyw322QRkJ.-Ys4H!u291
     P10HlHB KC2018 04 19HRjO%UI8TH5A4HLPTrRTBaV4P$6%tT'MEW,TZDb\4)q60Gj(TxJ;734
     P10HlHB KC2018 04 19nOE*e$%t,,s=lMwji3$L*:\,^d`75!+o**J/YDo?=21D/!gBZ9'N734
     P10HlHB KC2018 04 19v3g`sXON=EXHy\1XZwwlbuUcbQwXLRE98qhF4g%6f;!DB[uNEOCP734

Station data:
(291) LPL/Spacewatch II  (N31.961628 W111.599100)  US/Arizona.  Observers J.
   V. Scotti, R. S. McMillan. 1.8-m f/2.7 reflector + CCD.
(734) Farpoint Observatory, Eskridge  (N38.890107 W96.001400)  US/Kansas.
   Observer G. Hug. .3 meter s-c + CCD.
(F51) Pan-STARRS 1, Haleakala  (N20.707235 W156.255910)  US/Hawaii.
   Observers N. Primak, A. Schultz, S. Watters, J. Thiel, T. Goggia. Measurer
   PS1 Science Consortium. 1.8-m Ritchey-Chrétien + CCD.

Orbital elements:  P10HlHB
   Perihelion 2019 May 2.996431 +/- 130 TT = 23:54:51 (JD 2458606.496431)
Epoch 2018 Apr 19.0 TT = JDT 2458227.5   Earth MOID: 0.5065   AutoNEOCP
M 225.19745 +/- 56                  (J2000 ecliptic)
n   0.35568289 +/- 0.0332           Peri.  186.25651 +/- 35
a   1.97284997 +/- 0.122            Node   155.84720 +/- 5.4
e   0.2319853 +/- 0.0016            Incl.    2.04234 +/- 0.37
P   2.77                   H 19.3   G  0.15   U 10.5  
q 1.51517771 +/- 0.0995    Q 2.43052224 +/- 0.155
From 13 observations 2018 Apr. 13-19; mean residual 0".53
Residuals in arcseconds: 
180413 F51  .10-  .02-    180416 291  .60+  .25+    180419 734  .30-  1.8-    
180413 F51  .17-  .23-    180416 291  .26-  .43+    180419 734  .14+  .26+    
180413 F51  .01+  .38-    180419 291  .12-  .08+    180419 734  .76+  1.2+    
180414 291  .24-  .24+    180419 291  .07-  .06-    
180414 291  .32+  .03+    180419 291  .62-  .10-    

Ephemerides (geocentric):
Date (UTC) HH   RA              Dec         delta   r     elong  mag " sig PA
---- -- -- --  ------------   ------------  ------ ------ -----  --- ---- ---
2018 04 20 13  12 01 30.010   +02 00 57.54  1.4142 2.3353 149.3 22.6  1.7 114
2018 04 20 14  12 01 28.024   +02 01 11.04  1.4144 2.3353 149.3 22.6  1.8 115
2018 04 20 15  12 01 26.041   +02 01 24.52  1.4146 2.3352 149.2 22.6  1.9 115
2018 04 20 16  12 01 24.061   +02 01 37.98  1.4148 2.3351 149.2 22.6  1.9 115
2018 04 20 17  12 01 22.083   +02 01 51.41  1.4150 2.3351 149.1 22.6  2.0 116
2018 04 20 18  12 01 20.108   +02 02 04.83  1.4153 2.3350 149.1 22.6  2.0 116
2018 04 20 19  12 01 18.136   +02 02 18.23  1.4155 2.3350 149.0 22.6  2.1 116
2018 04 20 20  12 01 16.166   +02 02 31.61  1.4157 2.3349 149.0 22.6  2.2 117
2018 04 20 21  12 01 14.199   +02 02 44.97  1.4159 2.3348 148.9 22.6  2.2 117
2018 04 20 22  12 01 12.235   +02 02 58.31  1.4161 2.3348 148.9 22.6  2.3 117
2018 04 20 23  12 01 10.273   +02 03 11.63  1.4163 2.3347 148.8 22.6  2.4 117
2018 04 21 00  12 01 08.314   +02 03 24.93  1.4165 2.3346 148.8 22.6  2.4 118
2018 04 21 01  12 01 06.358   +02 03 38.21  1.4167 2.3346 148.7 22.6  2.5 118
2018 04 21 02  12 01 04.405   +02 03 51.46  1.4169 2.3345 148.7 22.6  2.6 118
2018 04 21 03  12 01 02.454   +02 04 04.70  1.4171 2.3345 148.6 22.6  2.7 118
2018 04 21 04  12 01 00.506   +02 04 17.92  1.4173 2.3344 148.6 22.6  2.7 118
2018 04 21 05  12 00 58.561   +02 04 31.12  1.4175 2.3343 148.5 22.6  2.8 119
2018 04 21 06  12 00 56.618   +02 04 44.30  1.4177 2.3343 148.5 22.7  2.9 119
2018 04 21 07  12 00 54.678   +02 04 57.46  1.4179 2.3342 148.4 22.7  3.0 119
2018 04 21 08  12 00 52.741   +02 05 10.59  1.4181 2.3342 148.4 22.7  3.1 119
2018 04 21 09  12 00 50.806   +02 05 23.71  1.4184 2.3341 148.3 22.7  3.1 119
2018 04 21 10  12 00 48.874   +02 05 36.81  1.4186 2.3340 148.3 22.7  3.2 119
2018 04 21 11  12 00 46.945   +02 05 49.89  1.4188 2.3340 148.2 22.7  3.3 119
2018 04 21 12  12 00 45.019   +02 06 02.94  1.4190 2.3339 148.2 22.7  3.4 120
2018 04 21 13  12 00 43.095   +02 06 15.98  1.4192 2.3339 148.1 22.7  3.5 120
2018 04 21 14  12 00 41.174   +02 06 28.99  1.4194 2.3338 148.1 22.7  3.6 120
2018 04 21 15  12 00 39.256   +02 06 41.99  1.4196 2.3337 148.0 22.7  3.7 120
2018 04 21 16  12 00 37.341   +02 06 54.97  1.4198 2.3337 148.0 22.7  3.7 120
2018 04 21 17  12 00 35.428   +02 07 07.92  1.4200 2.3336 147.9 22.7  3.8 120
2018 04 21 18  12 00 33.518   +02 07 20.86  1.4203 2.3335 147.9 22.7  3.9 120
2018 04 21 19  12 00 31.611   +02 07 33.77  1.4205 2.3335 147.8 22.7  4.0 120
2018 04 21 20  12 00 29.707   +02 07 46.66  1.4207 2.3334 147.8 22.7  4.1 120
2018 04 21 21  12 00 27.805   +02 07 59.54  1.4209 2.3334 147.7 22.7  4.2 120
2018 04 21 22  12 00 25.906   +02 08 12.39  1.4211 2.3333 147.7 22.7  4.3 121
2018 04 21 23  12 00 24.010   +02 08 25.22  1.4213 2.3332 147.6 22.7  4.4 121
2018 04 22 00  12 00 22.116   +02 08 38.04  1.4215 2.3332 147.6 22.7  4.5 121
2018 04 22 01  12 00 20.226   +02 08 50.83  1.4218 2.3331 147.6 22.7  4.6 121
2018 04 22 02  12 00 18.338   +02 09 03.60  1.4220 2.3330 147.5 22.7  4.7 121
2018 04 22 03  12 00 16.453   +02 09 16.35  1.4222 2.3330 147.5 22.7  4.8 121
2018 04 22 04  12 00 14.570   +02 09 29.08  1.4224 2.3329 147.4 22.7  4.9 121
2018 04 22 05  12 00 12.691   +02 09 41.79  1.4226 2.3329 147.4 22.7  5.1 121
2018 04 22 06  12 00 10.814   +02 09 54.48  1.4228 2.3328 147.3 22.7  5.2 121
2018 04 22 07  12 00 08.940   +02 10 07.15  1.4231 2.3327 147.3 22.7  5.3 121
2018 04 22 08  12 00 07.069   +02 10 19.80  1.4233 2.3327 147.2 22.7  5.4 121
2018 04 22 09  12 00 05.200   +02 10 32.42  1.4235 2.3326 147.2 22.7  5.5 121
2018 04 22 10  12 00 03.334   +02 10 45.03  1.4237 2.3326 147.1 22.7  5.6 121
2018 04 22 11  12 00 01.472   +02 10 57.62  1.4239 2.3325 147.1 22.7  5.7 121
2018 04 22 12  11 59 59.611   +02 11 10.18  1.4242 2.3324 147.0 22.7  5.9 121